Regional Weather Roundup
Issued by NWS

Home | Current Version | Previous Version | Graphics & Text | Print | Product List | Glossary Off
Versions: 1 2 3 4 5 6 7 8 9 10 11 12 13 14 15 16 17 18 19 20 21 22 23 24 25 26 27 28 29 30 31 32 33 34 35 36 37 38 39 40 41 42 43 44 45 46 47 48 49 50

000
ASUS43 KTOP 271559
RWRKS

WEATHER ROUNDUP FOR KANSAS
NATIONAL WEATHER SERVICE GOODLAND KS
1100 AM CDT SAT AUG 27 2016

NOTE:  "FAIR" INDICATES FEW OR NO CLOUDS BELOW 12,000 FEET WITH NO
SIGNIFICANT WEATHER AND/OR OBSTRUCTIONS TO VISIBILITY.

KSZ001>006-013>018-027>032-041>047-271700-
NORTHWEST KANSAS

CITY           SKY/WX    TMP DP  RH WIND       PRES   REMARKS
GOODLAND       CLOUDY    59  58  96 CALM      30.10R
HAYS           SUNNY     72  57  60 E8        30.05F
HILL CITY      SUNNY     71  61  70 VRB3      30.06F
RUSSELL        SUNNY     72  65  78 VRB6      30.05S
$$

KSZ061>065-074>080-084>089-271700-
SOUTHWEST KANSAS

CITY           SKY/WX    TMP DP  RH WIND       PRES   REMARKS
DODGE CITY     SUNNY     77  61  57 S13G20    30.07R
ELKHART          N/A     76  59  56 SW12        N/A
GARDEN CITY    SUNNY     74  61  63 S15       30.06S
GREAT BEND     SUNNY     73  61  64 E6        30.04F
LIBERAL        MOSUNNY   75  63  64 S12       30.08S
$$

KSZ066>073-081>083-090>101-271700-
SOUTHEAST KANSAS

CITY           SKY/WX    TMP DP  RH WIND       PRES   REMARKS
CHANUTE        CLOUDY    79  72  79 S6        30.05S
COFFEYVILLE    SUNNY     83  72  69 S12       30.04F
HUTCHINSON     SUNNY     78  68  71 SE7       30.04S
NEWTON         SUNNY     79  70  74 VRB5      30.05R
PARSONS        SUNNY     83  73  72 S8        30.06F
WICHITA INTL   MOSUNNY   80  71  74 SE8       30.03S
WICHITA JABRA  SUNNY     79  72  79 SE12      30.04S
WINFIELD       MOSUNNY   79  72  79 SE8       30.05S
$$

KSZ007>012-019>026-033>040-048>060-102>105-271700-
NORTHEAST KANSAS

CITY           SKY/WX    TMP DP  RH WIND       PRES   REMARKS
CONCORDIA      PTSUNNY   74  65  73 E6        30.05S
EMPORIA        MOSUNNY   78  71  79 S13       30.04S
LAWRENCE       MOSUNNY   78  71  79 S6        30.04R
MANHATTAN      SUNNY     77  67  71 SW6       30.04S
OLATHE IND     SUNNY     79  71  76 S9        30.05S
OLATHE EXE     SUNNY     79  72  79 S10       30.04F
SALINA         SUNNY     76  67  73 SE7       30.05S
TOPEKA BILLARD SUNNY     78  68  71 S6        30.04R
TOPEKA FORBES  MOSUNNY   80  70  71 S6        30.04S
$$



USA.gov is the U.S. government's official web portal to all federal, state and local government web resources and services.